{"data":{"norad_id":63285,"epoch":"2026-09-20T06:31:48.661536Z","epoch_age_seconds":178461,"freshness":"STALE","line1":"1 63285U 25053W   26263.27209099  .00010030  00000+0  37334-3 0  9992","line2":"2 63285  43.0018 222.7587 0001329 265.5030  94.5670 15.27595032 85958","mean_motion":15.27595032,"eccentricity":0.0001329,"inclination_deg":43.0018,"raan_deg":222.7587,"arg_perigee_deg":265.503,"mean_anomaly_deg":94.567,"bstar":0.00037334,"rev_number":8595,"period_min":94.265821100157,"perigee_km":482.0922395428,"apogee_km":483.91593084325,"semimajor_km":6861.141085193,"source":"CELESTRAK","updated_at":"2026-09-21T09:00:34.966285Z"}}